Regional Weather Roundup
Issued by NWS

Home | Current Version | Previous Version | Text Only | Print | Product List | Glossary On
Versions: 1 2 3 4 5 6 7 8 9 10 11 12 13 14 15 16 17 18 19 20 21 22 23 24 25 26 27 28 29 30 31 32 33 34 35 36 37 38 39 40 41 42 43 44 45 46 47 48 49 50
000
ASUS43 KIND 030609
RWRIN

WEATHER ROUNDUP FOR INDIANA
NATIONAL WEATHER SERVICE INDIANAPOLIS IN
200 AM EDT FRI JUL 03 2015

NOTE: "FAIR" INDICATES FEW OR NO CLOUDS BELOW 12,000 FEET WITH NO
SIGNIFICANT WEATHER AND/OR OBSTRUCTIONS TO VISIBILITY.

* - STATION DOES NOT REPORT WEATHER SUCH AS PRECIPITATION OR FOG.

+ - STATION NOT QUALITY CONTROLLED BY THE NATIONAL WEATHER SERVICE.
    USE DATA WITH CAUTION...ESPECIALLY DEWPOINT AND RELATIVE
    HUMIDITY OBSERVATIONS.

INZ001>003-010>013-019-020-030700-
NORTHWEST INDIANA

CITY           SKY/WX    TMP DP  RH WIND       PRES   REMARKS
GARY /AIRPORT/ PTCLDY    62  59  91 N6        29.98F
KNOX *+        PTCLDY    55  55 100 N3        29.97S
LA PORTE +     PTCLDY    60  56  84 NE3       29.99S
6HR MIN TEMP:  60; 6HR MAX TEMP:  69;

MICHIGAN CITY+ PTCLDY    54  54 100 CALM      29.99S
MONTICELLO +   CLOUDY    64  59  81 NE6       29.95S
6HR MIN TEMP:  64; 6HR MAX TEMP:  74;

RENSSELAER +   PTCLDY    61  59  94 N6        29.96S
VALPARAISO     MOCLDY    58  54  86 NE3       29.98F
6HR MIN TEMP:  57; 6HR MAX TEMP:  67;


$$

LMZ046-743>745-030700-
SOUTHERN LAKE MICHIGAN

STATION/POSITION TIME  TEMP    WIND        PRES    WAVE
                       AIR SEA DIR/SP/G            HT
                 (UTC) (F)     (DEG/KT/KT) (MB)    (FT)
BURNS HARBOR     0600   61      60/  8/  9 1016.3S
MICHIGAN CITY    0600   59      50/  5/  5   N/A
5NW MICH CITY    0600   61 62   80/  8/ 10   N/A     3

$$

INZ004-005-014>016-021>024-030700-
NORTH CENTRAL INDIANA

CITY           SKY/WX    TMP DP  RH WIND       PRES   REMARKS
GOSHEN         PTCLDY    61  55  81 NE7       29.98S
6HR MIN TEMP:  60; 6HR MAX TEMP:  72;

LOGANSPORT +   PTCLDY    63  54  72 NE5       29.96S
PERU/GRISSOM   CLEAR     63  56  77 E5        29.95S
6HR MIN TEMP:  63; 6HR MAX TEMP:  73;

ROCHESTER +    CLEAR     63  57  82 CALM      29.98R
SOUTH BEND     PTCLDY    58  54  86 N3        30.00R
6HR MIN TEMP:  58; 6HR MAX TEMP:  72;

WARSAW +         N/A     55  54  94 CALM      29.99R

$$

INZ006>009-017-018-025>027-030700-
NORTHEAST INDIANA

CITY           SKY/WX    TMP DP  RH WIND       PRES   REMARKS
ANGOLA *+        N/A     57  54  88 CALM      30.00R
AUBURN +       MOCLDY    57  54  88 CALM      30.00S
FORT WAYNE     PTCLDY    60  54  80 E6        29.98S
6HR MIN TEMP:  59; 6HR MAX TEMP:  72;

HUNTINGTON +   CLEAR     60  55  82 E5        29.97S
6HR MIN TEMP:  60; 6HR MAX TEMP:  71;


$$

INZ028-029-035-036-043>045-051>053-030700-
WEST CENTRAL INDIANA

CITY           SKY/WX    TMP DP  RH WIND       PRES   REMARKS
CRAWFORDSVL +  MOCLDY    65  58  78 NE7       29.92S
6HR MIN TEMP:  64; 6HR MAX TEMP:  73;

GREENCASTLE +  MOCLDY    68  61  77 NE5       29.91S
LAFAYETTE      PTCLDY    65  58  78 NE10      29.93S
6HR MIN TEMP:  65; 6HR MAX TEMP:  73;

TERRE HAUTE    CLOUDY    71  65  81 NE6       29.90R
6HR MIN TEMP:  71; 6HR MAX TEMP:  76;


$$

INZ030>032-037>040-046>048-054>057-064-065-030700-
CENTRAL INDIANA

CITY           SKY/WX    TMP DP  RH WIND       PRES   REMARKS
CP ATTERBURY + CLOUDY    68  64  88 NE5       29.91S FOG
FISHERS *+     CLOUDY    66  61  82 NE8       29.93
FRANKFORT +    PTCLDY    66  59  80 NE8       29.96S
6HR MIN TEMP:  66; 6HR MAX TEMP:  74;

GREENWOOD *+   CLOUDY    70  61  73 NE8       29.92S
INDIANAPOLIS   CLOUDY    70  60  70 NE13      29.89S
6HR MIN TEMP:  70; 6HR MAX TEMP:  77;

-EAGLE CREEK   MOCLDY    69  61  75 NE9       29.91S
6HR MIN TEMP:  69; 6HR MAX TEMP:  76;

KOKOMO *+      CLOUDY    63  55  77 E9        29.95S
6HR MIN TEMP:  63; 6HR MAX TEMP:  72;

MARION +       MOCLDY    62  54  74 E8        29.96F
MT COMFORT *+  PTCLDY    66  57  72 E10       29.93S
SHELBYVILLE    CLOUDY    71  62  73 NE8       29.90S
6HR MIN TEMP:  71; 6HR MAX TEMP:  77;

ZIONSVILLE +   MOCLDY    66  58  73 NE6       29.94S
6HR MIN TEMP:  66; 6HR MAX TEMP:  74;


$$

INZ033-034-041-042-049-050-058-059-030700-
EAST CENTRAL INDIANA

CITY           SKY/WX    TMP DP  RH WIND       PRES   REMARKS
MUNCIE         PTCLDY    64  57  78 E8        29.95S
6HR MIN TEMP:  64; 6HR MAX TEMP:  74;


$$

INZ060-061-067>069-081>083-085>088-030700-
SOUTHWEST INDIANA

CITY           SKY/WX    TMP DP  RH WIND       PRES   REMARKS
EVANSVILLE     CLOUDY    73  70  90 N3        29.87S FOG
6HR MIN TEMP:  73; 6HR MAX TEMP:  77;

HUNTINGBURG *+ CLOUDY    72  68  88 CALM      29.87S
6HR MIN TEMP:  70; 6HR MAX TEMP:  73;

WASHINGTON +   MOCLDY    69  66  88 CALM      29.87S FOG
6HR MIN TEMP:  69; 6HR MAX TEMP:  76; 6HR PCP:  0.02;


$$

INZ062-063-066-070>080-084-089>092-030700-
SOUTH CENTRAL AND SOUTHEAST INDIANA

CITY           SKY/WX    TMP DP  RH WIND       PRES   REMARKS
BLOOMINGTON    CLOUDY    71  66  84 E6        29.89S
6HR MIN TEMP:  71; 6HR MAX TEMP:  76;

MADISON *+     CLOUDY    70  66  88 NE6       29.90S
NORTH VERNON + MOCLDY    70  70 100 E5        29.90R
SEYMOUR +      CLOUDY    72  70  94 E6        29.88F

$$



USA.gov is the U.S. government's official web portal to all federal, state and local government web resources and services.